Location: Wingville
(42.9917°N, 90.4915°W)
Time: 19:17:39
(UTC+00:00)

FO-29 - Pass Details

Date: 09 July 2022
Orbit: 800 x 1322 km, 98.5° (Epoch: 09 August)

Event Time Altitude Azimuth Distance (km) Brightness Sun altitude
Rises 02:26:08 0° 226° (SW) 4,247 12.9 -7.2°
Reaches altitude 10° 02:30:57 10° 253° (WSW) 3,334 12.8 -7.9°
Maximum altitude 02:34:04 13° 277° (W) 3,145 13.1 -8.3°
Drops below altitude 10° 02:37:12 10° 301° (WNW) 3,355 13.9 -8.8°
Sets 02:42:09 0° 329° (NNW) 4,303 14.6 -9.4°
